Regional Weather Roundup
Issued by NWS

Home | Current Version | Previous Version | Graphics & Text | Print | Product List | Glossary On
Versions: 1 2 3 4 5 6 7 8 9 10 11 12 13 14 15 16 17 18 19 20 21 22 23 24 25 26 27 28 29 30 31 32 33 34 35 36 37 38 39 40 41 42 43 44 45 46 47 48 49 50
000
ASUS43 KLOT 220509
RWRIL

ILLINOIS REGIONAL WEATHER ROUNDUP
NATIONAL WEATHER SERVICE CHICAGO/ROMEOVILLE IL
1200 AM CDT SUN OCT 22 2017

NOTE: "FAIR" INDICATES FEW OR NO CLOUDS BELOW 12,000 FEET WITH NO
SIGNIFICANT WEATHER AND/OR OBSTRUCTIONS TO VISIBILITY.

* THESE STATIONS ARE NOT UNDER NWS QUALITY CONTROL. THEY ALSO MAY NOT
  REPORT WEATHER SUCH AS PRECIPITATION OR FOG.

ILZ001-002-007-009-015-016-024-220600-
NORTHWEST ILLINOIS

CITY           SKY/WX    TMP DP  RH WIND       PRES   REMARKS
MOLINE         CLOUDY    71  57  61 S15G23    29.87F
STERLING*      CLOUDY    69  58  67 VRB6        N/A
SAVANNA*       CLOUDY    70  58  65 S16       29.89F
$$

ILZ003-004-008-010-011-017-018-220600-
NORTH CENTRAL ILLINOIS

CITY           SKY/WX    TMP DP  RH WIND       PRES   REMARKS
ROCKFORD       CLOUDY    68  57  68 S16       29.95F
FREEPORT*      CLOUDY    68  57  69 S20G25    29.94S
ROCHELLE*      CLOUDY    67  58  71 S15G22    29.96F
DE KALB*       CLOUDY    65  57  75 S15       29.99S
PERU*          MOCLDY    66  56  69 S14       29.97F
$$

ILZ005-006-012>014-019>023-220600-
NORTHEAST ILLINOIS

CITY           SKY/WX    TMP DP  RH WIND       PRES   REMARKS
CHICAGO-OHARE  PTCLDY    67  55  65 S20       30.00S
CHICAGO-MIDWAY PTCLDY    68  55  63 S15       30.01S
AURORA         CLOUDY    67  56  67 S16G24    29.99F
LANSING*       CLEAR     65  55  72 S13G20    30.04S
JOLIET*        CLOUDY    68  56  67 S12G18    30.02S
WAUKEGAN       CLOUDY    68  57  68 S17G24    29.98S
DUPAGE AIRPORT CLOUDY    67  57  70 S16G25    29.99F
KANKAKEE*      CLOUDY    65  53  64 S9G16     30.05S
WHEELING       CLOUDY    68  57  68 S17       30.01S
MORRIS*        CLOUDY    67  55  66 S15G22    29.99F
ROMEOVILLE*    CLOUDY    65  55  70 S14G20    30.02S
NORTHERLY ISL    N/A     68  53  58 S17         N/A
$$

LMZ740>746-220600-
SOUTHERN LAKE MICHIGAN

STATION/POSITION SKY/WX   TEMP    WIND        PRES    VSBY  WAVE
                          AIR SEA DIR/SP/G                  HT/PER
                          (F)     (DEG/KT/KT) (MB)    (MI)  (FT/S)
SOUTHERN BUOY              64 61  170/ 17/ 21 1016.2R         3/ 4
WILMETTE HARBOR            66 59  180/ 16/ 21   N/A           2/ 3
HARRISON CRIB              68     190/ 24/ 26   N/A
BURNHAM HARBOR             68     170/ 10/ 18   N/A
CALUMET HARBOR             68     170/ 11/ 18 1016.1R
BURNS HARBOR               67     180/ 14/ 21 1017.6S
MICHIGAN CITY              67     160/ 14/ 17   N/A
MICHIGAN CITY 6N           65 58  180/ 16/ 21   N/A           2/ 2
ST. JOSEPH                 65 59  190/ 14/ 17 1017.9          2/ 3
$$

ILZ025>027-034>036-040-047-049-050-058-095>099-220600-
WEST-CENTRAL ILLINOIS

CITY           SKY/WX    TMP DP  RH WIND       PRES   REMARKS
QUINCY         LGT RAIN  70  62  76 SE14      29.88F
MACOMB*        CLEAR     69  58  69 S17G23    29.92F
JACKSONVILLE*  CLEAR     69  58  67 SE17      29.95F
PITTSFIELD*    MOCLDY    70  61  72 SE12      29.93F
$$

ILZ028>032-037-038-041>044-048-051>054-059>061-220600-
CENTRAL ILLINOIS

CITY           SKY/WX    TMP DP  RH WIND       PRES   REMARKS
PONTIAC        CLOUDY    68  57  69 S21       30.01F
BLOOMINGTON    PTCLDY    64  56  75 S17       30.01F
DECATUR        CLOUDY    67  56  67 S16       30.04S
PEORIA         CLOUDY    70  57  63 S17G29    29.95F
LACON*         CLOUDY    70  56  62 S17G24    29.95F
LINCOLN*       CLOUDY    70  59  66 S14G22    29.99F
SPRINGFIELD    CLOUDY    71  59  65 S15G25    29.98F
TAYLORVILLE    PTCLDY    68  57  68 S12       30.02F
$$

ILZ033-039-045-046-055>057-062-063-220600-
EAST-CENTRAL ILLINOIS

CITY           SKY/WX    TMP DP  RH WIND       PRES   REMARKS
CHAMPAIGN      CLOUDY    67  53  61 S13       30.06R
DANVILLE*      CLEAR     66  53  63 S15G22    30.05R
RANTOUL*       CLOUDY    65  56  73 S9        30.06S
MATTOON        PTCLDY    65  56  72 S10       30.06R
PARIS*         CLEAR     64  55  72 S14       30.08F
$$

ILZ079-100>102-220600-
SOUTHWEST ILLINOIS

CITY           SKY/WX    TMP DP  RH WIND       PRES   REMARKS
ALTON          CLOUDY    69  62  78 CALM      30.01F
BELLEVILLE     MOCLDY    70  59  68 S6        30.04R
CAHOKIA*       CLOUDY    73  60  63 S9        30.00S
SPARTA*        PTCLDY    70  61  73 S10G16    30.03R
$$

ILZ064>066-069>071-074>076-080>082-084>086-088>090-092>094-220600-
SOUTH-CENTRAL ILLINOIS

CITY           SKY/WX    TMP DP  RH WIND       PRES   REMARKS
CARBONDALE     CLOUDY    69  62  78 S10       30.04S
CAIRO*         CLOUDY    69  61  76 S13       30.05F
EFFINGHAM*     PTCLDY    67  57  71 SE8       30.07S
MARION         PTCLDY    71  61  72 S12       30.06S
MT. VERNON     PTCLDY    66  59  78 SE5       30.06S
CENTRALIA*     PTCLDY    69  61  75 SE13G18   30.03S
SALEM*         CLOUDY    68  58  69 SE6       30.05S
METROPOLIS*    CLOUDY    69  61  76 SE5       30.07F
$$

ILZ067-068-072-073-078-083-087-091-220600-
SOUTHEAST ILLINOIS

CITY           SKY/WX    TMP DP  RH WIND       PRES   REMARKS
LAWRENCEVILLE  CLEAR     63  55  75 SE8       30.09F
FLORA*         PTCLDY    66  58  76 S7        30.07R
FAIRFIELD*     PTCLDY    67  59  75 SE6       30.06S
HARRISBURG*    PTCLDY    68  61  78 S9        30.07F
ROBINSON*      CLEAR     63  54  71 S8        30.09S
CARMI*         PTCLDY    65  59  80 SE9       30.07F
$$

ABBREVIATIONS USED IN REMARKS
   TC - TEMPERATURE IN CELSIUS
  WCI - WIND CHILL INDEX
   HX - HEAT INDEX
  VSB - VISIBILITY
$$





USA.gov is the U.S. government's official web portal to all federal, state and local government web resources and services.